• în Republica Moldova
  • Lista ţărilor
  • Pe 7 zile
  • Temperatura apei
  • Hartă satelitară
  • Meteo pe hartă
  • Widget-uri
  • user-avatar
    Intrare

    Meteo pe oră la Namibe

    Astăzi, 22 August, Marţi

    Timp Temperatura Precipitaţii Vânt Presiune Umiditate
    00:00 +24°C° 0 mm 2 m/s 759 mmHg 56%
    01:00 +24°C° 0 mm 3 m/s 758 mmHg 56%
    02:00 +24°C° 0 mm 2 m/s 758 mmHg 56%
    03:00 +24°C° 0 mm 2 m/s 758 mmHg 56%
    04:00 +24°C° 0 mm 2 m/s 757 mmHg 56%
    05:00 +24°C° 0 mm 2 m/s 758 mmHg 53%
    06:00 +24°C° 0 mm 1 m/s 758 mmHg 49%
    07:00 +25°C° 0 mm 1 m/s 758 mmHg 45%
    08:00 +28°C° 0 mm 2 m/s 758 mmHg 36%
    09:00 +31°C° 0 mm 2 m/s 758 mmHg 27%
    10:00 +35°C° 0 mm 3 m/s 758 mmHg 17%
    11:00 +36°C° 0 mm 4 m/s 758 mmHg 18%
    12:00 +37°C° 0 mm 4 m/s 757 mmHg 19%
    13:00 +39°C° 0 mm 5 m/s 757 mmHg 20%
    14:00 +36°C° 0 mm 5 m/s 756 mmHg 29%
    15:00 +33°C° 0 mm 5 m/s 756 mmHg 37%
    16:00 +30°C° 0 mm 5 m/s 755 mmHg 45%
    17:00 +28°C° 0 mm 4 m/s 756 mmHg 51%
    18:00 +26°C° 0 mm 4 m/s 756 mmHg 58%
    19:00 +24°C° 0 mm 3 m/s 756 mmHg 64%
    20:00 +24°C° 0 mm 3 m/s 757 mmHg 63%
    21:00 +25°C° 0 mm 3 m/s 757 mmHg 62%
    22:00 +25°C° 0 mm 3 m/s 758 mmHg 62%
    23:00 +24°C° 0 mm 3 m/s 758 mmHg 61%

    Mâine, 23 August, Miercuri

    Timp Temperatura Precipitaţii Vânt Presiune Umiditate
    00:00 +24°C° 0 mm 3 m/s 758 mmHg 61%
    01:00 +24°C° 0 mm 3 m/s 757 mmHg 61%
    02:00 +22°C° 0 mm 3 m/s 757 mmHg 65%
    03:00 +21°C° 0 mm 3 m/s 757 mmHg 69%
    04:00 +21°C° 0 mm 3 m/s 757 mmHg 72%
    05:00 +21°C° 0 mm 3 m/s 757 mmHg 75%
    06:00 +21°C° 0 mm 3 m/s 758 mmHg 77%
    07:00 +20°C° 0 mm 3 m/s 758 mmHg 80%
    08:00 +23°C° 0 mm 4 m/s 758 mmHg 70%
    09:00 +26°C° 0 mm 4 m/s 759 mmHg 61%
    10:00 +28°C° 0 mm 5 m/s 759 mmHg 51%
    11:00 +29°C° 0 mm 5 m/s 758 mmHg 49%
    12:00 +30°C° 0 mm 6 m/s 758 mmHg 47%
    13:00 +32°C° 0 mm 6 m/s 757 mmHg 45%
    14:00 +30°C° 0 mm 6 m/s 757 mmHg 50%
    15:00 +29°C° 0 mm 6 m/s 756 mmHg 54%
    16:00 +28°C° 0 mm 6 m/s 756 mmHg 59%
    17:00 +26°C° 0 mm 5 m/s 757 mmHg 66%
    18:00 +25°C° 0 mm 4 m/s 757 mmHg 74%
    19:00 +22°C° 0 mm 3 m/s 758 mmHg 81%
    20:00 +23°C° 0 mm 2 m/s 759 mmHg 82%
    21:00 +23°C° 0 mm 2 m/s 759 mmHg 83%
    22:00 +23°C° 0 mm 1 m/s 760 mmHg 84%
    23:00 +22°C° 0 mm 1 m/s 760 mmHg 85%

    Poimâine, 24 August, Joi

    Timp Temperatura Precipitaţii Vânt Presiune Umiditate
    00:00 +21°C° 0 mm 2 m/s 759 mmHg 87%
    01:00 +21°C° 0 mm 2 m/s 759 mmHg 88%
    02:00 +21°C° 0 mm 2 m/s 759 mmHg 90%
    03:00 +20°C° 0 mm 2 m/s 758 mmHg 92%
    04:00 +21°C° 0 mm 1 m/s 758 mmHg 94%
    05:00 +21°C° 0 mm 1 m/s 758 mmHg 93%
    06:00 +21°C° 0 mm 1 m/s 759 mmHg 92%
    07:00 +22°C° 0 mm 1 m/s 759 mmHg 92%
    08:00 +23°C° 0 mm 2 m/s 759 mmHg 82%
    09:00 +25°C° 0 mm 2 m/s 760 mmHg 73%
    10:00 +26°C° 0 mm 2 m/s 760 mmHg 64%
    11:00 +28°C° 0 mm 3 m/s 759 mmHg 59%
    12:00 +29°C° 0 mm 4 m/s 759 mmHg 54%
    13:00 +30°C° 0 mm 4 m/s 758 mmHg 49%
    14:00 +29°C° 0 mm 4 m/s 758 mmHg 53%
    15:00 +28°C° 0 mm 4 m/s 758 mmHg 57%
    16:00 +27°C° 0 mm 4 m/s 757 mmHg 61%
    17:00 +26°C° 0 mm 3 m/s 758 mmHg 67%
    18:00 +25°C° 0 mm 3 m/s 759 mmHg 74%
    19:00 +23°C° 0 mm 2 m/s 759 mmHg 81%
    20:00 +23°C° 0 mm 2 m/s 760 mmHg 81%
    21:00 +23°C° 0 mm 1 m/s 760 mmHg 81%
    22:00 +21°C° 0 mm 0 m/s 760 mmHg 82%
    23:00 +23°C° 0 mm 1 m/s 760 mmHg 83%

    25 August, Vineri

    Timp Temperatura Precipitaţii Vânt Presiune Umiditate
    00:00 +22°C° 0 mm 1 m/s 760 mmHg 83%
    01:00 +21°C° 0 mm 2 m/s 759 mmHg 84%
    02:00 +21°C° 0 mm 2 m/s 759 mmHg 86%
    03:00 +22°C° 0 mm 1 m/s 759 mmHg 87%
    04:00 +21°C° 0 mm 1 m/s 759 mmHg 88%
    05:00 +21°C° 0 mm 1 m/s 759 mmHg 87%
    06:00 +22°C° 0 mm 1 m/s 760 mmHg 85%
    07:00 +22°C° 0 mm 1 m/s 760 mmHg 84%
    08:00 +23°C° 0 mm 1 m/s 760 mmHg 80%
    09:00 +23°C° 0 mm 1 m/s 760 mmHg 75%
    10:00 +24°C° 0 mm 2 m/s 760 mmHg 71%
    11:00 +26°C° 0 mm 2 m/s 759 mmHg 62%
    12:00 +28°C° 0 mm 3 m/s 758 mmHg 54%
    13:00 +30°C° 0 mm 4 m/s 758 mmHg 45%
    14:00 +29°C° 0 mm 4 m/s 757 mmHg 48%
    15:00 +29°C° 0 mm 5 m/s 757 mmHg 50%
    16:00 +28°C° 0 mm 6 m/s 756 mmHg 52%
    17:00 +27°C° 0 mm 5 m/s 757 mmHg 59%
    18:00 +25°C° 0 mm 5 m/s 757 mmHg 66%
    19:00 +22°C° 0 mm 4 m/s 758 mmHg 72%
    20:00 +22°C° 0 mm 4 m/s 758 mmHg 72%
    21:00 +22°C° 0 mm 4 m/s 758 mmHg 72%
    22:00 +21°C° 0 mm 3 m/s 759 mmHg 72%
    23:00 +21°C° 0 mm 3 m/s 758 mmHg 72%

    26 August, Sâmbătă

    Timp Temperatura Precipitaţii Vânt Presiune Umiditate
    00:00 +21°C° 0 mm 3 m/s 758 mmHg 72%
    01:00 +21°C° 0 mm 3 m/s 758 mmHg 72%
    02:00 +20°C° 0 mm 3 m/s 758 mmHg 73%
    03:00 +20°C° 0 mm 2 m/s 758 mmHg 74%
    04:00 +20°C° 0 mm 2 m/s 757 mmHg 76%
    05:00 +20°C° 0 mm 2 m/s 758 mmHg 77%
    06:00 +20°C° 0 mm 2 m/s 758 mmHg 79%
    07:00 +19°C° 0 mm 2 m/s 759 mmHg 81%
    08:00 +21°C° 0 mm 2 m/s 759 mmHg 72%
    09:00 +24°C° 0 mm 2 m/s 759 mmHg 63%
    10:00 +26°C° 0 mm 2 m/s 759 mmHg 54%
    11:00 +28°C° 0 mm 3 m/s 759 mmHg 49%
    12:00 +29°C° 0 mm 3 m/s 758 mmHg 45%
    13:00 +30°C° 0 mm 4 m/s 757 mmHg 40%
    14:00 +30°C° 0 mm 4 m/s 757 mmHg 42%
    15:00 +29°C° 0 mm 4 m/s 757 mmHg 44%
    16:00 +28°C° 0 mm 4 m/s 756 mmHg 46%
    17:00 +26°C° 0 mm 4 m/s 757 mmHg 53%
    18:00 +24°C° 0 mm 3 m/s 758 mmHg 60%
    19:00 +23°C° 0 mm 2 m/s 758 mmHg 66%
    20:00 +21°C° 0 mm 2 m/s 759 mmHg 68%
    21:00 +21°C° 0 mm 2 m/s 759 mmHg 70%
    22:00 +22°C° 0 mm 1 m/s 759 mmHg 71%
    23:00 +21°C° 0 mm 1 m/s 759 mmHg 73%

    27 August, Duminică

    Timp Temperatura Precipitaţii Vânt Presiune Umiditate
    00:00 +20°C° 0 mm 2 m/s 759 mmHg 75%
    01:00 +20°C° 0 mm 2 m/s 759 mmHg 77%
    02:00 +19°C° 0 mm 2 m/s 759 mmHg 80%
    03:00 +19°C° 0 mm 2 m/s 759 mmHg 84%
    04:00 +18°C° 0 mm 3 m/s 759 mmHg 87%
    05:00 +18°C° 0 mm 3 m/s 759 mmHg 89%
    06:00 +18°C° 0 mm 3 m/s 759 mmHg 90%
    07:00 +18°C° 0 mm 3 m/s 760 mmHg 92%
    08:00 +20°C° 0 mm 3 m/s 760 mmHg 80%
    09:00 +22°C° 0 mm 3 m/s 760 mmHg 68%
    10:00 +25°C° 0 mm 3 m/s 760 mmHg 57%
    11:00 +27°C° 0 mm 4 m/s 759 mmHg 50%
    12:00 +29°C° 0 mm 4 m/s 758 mmHg 43%
    13:00 +32°C° 0 mm 4 m/s 757 mmHg 37%
    14:00 +30°C° 0 mm 4 m/s 757 mmHg 42%
    15:00 +29°C° 0 mm 4 m/s 757 mmHg 47%
    16:00 +28°C° 0 mm 5 m/s 756 mmHg 52%
    17:00 +26°C° 0 mm 4 m/s 757 mmHg 59%
    18:00 +24°C° 0 mm 3 m/s 757 mmHg 65%
    19:00 +23°C° 0 mm 2 m/s 758 mmHg 72%
    20:00 +22°C° 0 mm 1 m/s 758 mmHg 73%
    21:00 +22°C° 0 mm 1 m/s 758 mmHg 74%
    22:00 +22°C° 0 mm 1 m/s 758 mmHg 76%
    23:00 +21°C° 0 mm 1 m/s 758 mmHg 78%
    Arată mai mult